Latest Weather Observations for Tunnack

IDT60801

Issued at 12:05 pm EST Thursday 24 April 2014 (issued every 30 minutes, with the page automatically refreshed every 10 minutes)

About weather observations | Map of weather stations | Latest weather observations for TAS | Other Formats
Station Details ID: 094195 Name: TUNNACK FIRE STATION Lat: -42.45 Lon: 147.46 Height: 461.5 m
Data from the previous 72 hours. | See also: Recent months at Tunnack
Date/Time
EST
Temp
°C
App
Temp
°C
Dew
Point
Rel
Hum
%
Delta-T
°C
Wind Press
QNH
hPa
Press
MSL
hPa
Rain
since 9 am
mm
Dir
 
Spd
km/h
Gust
km/h
Spd
kts
Gust
kts
24/12:00pm 8.0 0.1 2.3 67 2.4 W 33 56 18 30 1006.7 1006.7 0.6
24/11:30am 7.8 1.0 3.1 72 2.1 W 28 48 15 26 1006.5 - 0.6
24/11:05am 7.5 0.7 3.2 74 1.9 W 28 46 15 25 1006.2 - 0.6
24/11:00am 8.0 2.3 4.8 80 1.5 W 24 48 13 26 1006.2 - 0.6
24/10:51am 7.2 0.5 3.6 78 1.6 W 28 50 15 27 1006.1 - 0.6
24/10:30am 6.0 0.0 3.5 84 1.1 WSW 24 41 13 22 1005.4 - 0.6
24/10:00am 6.7 0.7 5.2 90 0.7 WSW 26 35 14 19 1004.7 - 0.4
24/09:30am 8.1 2.6 3.9 75 1.9 W 22 35 12 19 1004.1 - 0.0
24/09:00am 7.6 3.6 4.7 82 1.3 W 15 32 8 17 1003.4 1003.3 2.8
24/08:30am 6.8 1.4 4.6 86 1.0 WNW 22 35 12 19 1003.1 - 2.8
24/08:00am 6.0 1.2 4.5 90 0.7 WNW 19 28 10 15 1002.6 - 2.8
24/07:30am 5.8 0.0 4.4 91 0.6 WNW 24 33 13 18 1002.0 - 2.8
24/07:00am 5.7 2.1 4.8 94 0.4 NW 13 19 7 10 1001.2 - 2.8
24/06:30am 5.8 1.1 5.2 96 0.3 WNW 19 30 10 16 1000.6 - 2.6
24/06:00am 6.0 1.4 5.6 97 0.2 W 19 28 10 15 1001.4 1001.3 2.6
24/05:30am 6.8 1.0 6.1 95 0.3 W 26 44 14 24 1001.6 - 1.8
24/05:00am 7.2 1.5 6.5 95 0.3 W 26 44 14 24 1001.2 - 1.2
24/04:51am 8.1 2.2 7.5 96 0.3 W 28 46 15 25 1001.1 - 0.8
24/04:49am 8.4 2.2 8.0 97 0.2 W 30 46 16 25 1000.9 - 0.8
24/04:38am 9.6 4.2 9.5 99 0.1 N 28 48 15 26 998.9 - 0.0
24/04:30am 9.3 3.8 9.2 99 0.1 N 28 39 15 21 999.0 - 0.0
24/04:00am 9.1 2.8 9.0 99 0.1 N 32 43 17 23 999.2 - 0.0
24/03:30am 8.6 2.6 8.5 99 0.0 N 30 41 16 22 999.8 - 0.0
24/03:00am 8.5 4.9 8.4 99 0.0 N 17 24 9 13 1000.2 1000.1 0.0
24/02:30am 8.6 2.2 8.5 99 0.0 N 32 43 17 23 1001.3 - 0.0
24/02:00am 8.2 3.6 8.1 99 0.0 N 22 37 12 20 1002.4 - 0.0
24/01:30am 8.4 2.6 8.1 98 0.1 N 28 39 15 21 1003.2 - 0.0
24/01:00am 8.6 2.7 7.5 93 0.5 N 28 37 15 20 1004.1 - 0.0
24/12:30am 8.9 3.1 8.0 94 0.4 N 28 39 15 21 1004.2 - 0.0
24/12:07am 8.8 3.1 8.4 97 0.2 N 28 50 15 27 1004.8 - 0.0
24/12:00am 8.6 4.0 8.3 98 0.1 N 22 37 12 20 1004.9 1004.9 0.0
 
Date/Time
EST
Temp
°C
App
Temp
°C
Dew
Point
Rel
Hum
%
Delta-T
°C
Wind Press
QNH
hPa
Press
MSL
hPa
Rain
since 9 am
mm
Dir
 
Spd
km/h
Gust
km/h
Spd
kts
Gust
kts
23/11:30pm 8.7 2.1 7.8 94 0.4 N 32 43 17 23 1005.3 - 0.0
23/11:20pm 8.7 2.6 8.1 96 0.3 N 30 48 16 26 1005.4 - 0.0
23/11:00pm 8.5 4.3 8.2 98 0.1 NNE 20 35 11 19 1005.9 - 0.0
23/10:30pm 8.5 4.0 8.4 99 0.0 N 22 37 12 20 1006.6 - 0.0
23/10:00pm 8.7 3.4 8.6 99 0.0 N 26 35 14 19 1007.2 - 0.0
23/09:30pm 8.5 3.2 8.4 99 0.0 N 26 33 14 18 1007.4 - 0.0
23/09:00pm 8.7 3.4 8.3 97 0.2 NNW 26 35 14 19 1007.6 1007.6 0.0
23/08:30pm 9.0 3.7 8.4 96 0.3 NNW 26 37 14 20 1007.6 - 0.0
23/08:00pm 8.9 4.3 8.1 95 0.4 NNW 22 35 12 19 1008.1 - 0.0
23/07:30pm 9.0 3.6 7.8 92 0.6 N 26 35 14 19 1008.2 - 0.0
23/07:00pm 9.3 3.8 7.6 89 0.8 N 26 37 14 20 1008.2 - 0.0
23/06:30pm 9.6 4.4 7.4 86 1.1 N 24 35 13 19 1008.6 - 0.0
23/06:00pm 9.6 4.3 7.0 84 1.3 N 24 35 13 19 1008.7 1008.7 0.0
23/05:30pm 10.2 4.5 6.5 78 1.8 N 26 35 14 19 1008.8 - 0.0
23/05:00pm 11.1 4.9 6.3 72 2.3 N 28 39 15 21 1008.8 - 0.0
23/04:30pm 11.7 6.2 5.8 67 2.8 N 24 33 13 18 1008.9 - 0.0
23/04:00pm 12.3 7.0 5.2 62 3.4 N 22 32 12 17 1009.4 - 0.0
23/03:30pm 13.1 9.6 5.3 59 3.7 NW 13 17 7 9 1009.5 - 0.0
23/03:00pm 12.6 8.8 6.0 64 3.2 NNW 15 19 8 10 1009.7 1009.7 0.0
23/02:30pm 12.6 8.5 6.4 66 3.0 N 17 24 9 13 1009.9 - 0.0
23/02:00pm 12.6 7.5 6.0 64 3.2 N 22 33 12 18 1010.5 - 0.0
23/01:30pm 12.5 7.0 5.7 63 3.3 N 24 30 13 16 1010.8 - 0.0
23/01:00pm 12.4 7.3 6.0 65 3.1 N 22 30 12 16 1011.2 - 0.0
23/12:30pm 12.6 7.5 5.8 63 3.3 N 22 33 12 18 1011.5 - 0.0
23/12:00pm 12.2 6.7 5.8 65 3.1 N 24 32 13 17 1011.9 1011.9 0.0
23/11:30am 11.6 6.4 5.7 67 2.8 N 22 32 12 17 1012.3 - 0.0
23/11:00am 11.4 6.1 4.8 64 3.1 NNE 22 30 12 16 1012.7 - 0.0
23/10:30am 11.8 7.0 5.4 65 3.0 N 20 28 11 15 1013.1 - 0.0
23/10:00am 11.8 7.5 3.1 55 3.9 NNW 15 26 8 14 1013.4 - 0.0
23/09:30am 10.6 6.9 4.3 65 2.9 N 13 20 7 11 1013.9 - 0.0
23/09:00am 9.4 6.6 5.2 75 1.9 NNE 9 13 5 7 1014.0 1014.0 0.0
23/08:30am 7.4 4.7 5.7 89 0.8 NNE 9 11 5 6 1014.2 - 0.0
23/08:00am 5.4 3.0 5.3 99 0.0 NE 7 11 4 6 1014.0 - 0.0
23/07:30am 4.3 2.6 4.2 99 0.0 NNE 2 6 1 3 1013.9 - 0.0
23/07:00am 3.5 0.7 3.2 98 0.1 E 7 9 4 5 1013.9 - 0.0
23/06:30am 4.0 1.4 3.4 96 0.3 ENE 6 9 3 5 1013.9 - 0.0
23/06:00am 5.0 3.7 4.3 95 0.3 CALM 0 0 0 0 1014.1 1014.2 0.0
23/05:30am 5.0 3.0 4.3 95 0.3 NNE 4 7 2 4 1014.1 - 0.0
23/05:00am 3.7 0.9 3.0 95 0.3 NNE 7 9 4 5 1013.8 - 0.0
23/04:30am 4.3 1.6 3.6 95 0.3 ESE 7 9 4 5 1013.6 - 0.0
23/04:00am 3.7 1.0 2.7 93 0.4 E 6 7 3 4 1013.6 - 0.0
23/03:30am 3.4 0.4 2.2 92 0.5 ESE 7 9 4 5 1013.5 - 0.0
23/03:00am 4.5 2.2 3.0 90 0.6 WNW 4 9 2 5 1013.7 1013.7 0.0
23/02:30am 4.2 2.7 2.9 91 0.5 CALM 0 6 0 3 1013.7 - 0.0
23/02:00am 6.0 2.0 2.8 80 1.4 NW 13 20 7 11 1013.8 - 0.0
23/01:30am 4.3 1.7 3.1 92 0.5 NW 6 11 3 6 1013.8 - 0.0
23/01:00am 7.2 3.6 5.0 86 1.0 NNW 13 15 7 8 1013.8 - 0.0
23/12:30am 7.0 4.2 5.0 87 0.9 NW 9 13 5 7 1014.1 - 0.0
23/12:00am 6.6 3.3 4.4 86 1.0 NW 11 15 6 8 1013.9 1013.9 0.0
 
Date/Time
EST
Temp
°C
App
Temp
°C
Dew
Point
Rel
Hum
%
Delta-T
°C
Wind Press
QNH
hPa
Press
MSL
hPa
Rain
since 9 am
mm
Dir
 
Spd
km/h
Gust
km/h
Spd
kts
Gust
kts
22/11:30pm 5.8 2.9 4.8 93 0.4 WNW 9 13 5 7 1013.8 - 0.0
22/11:00pm 6.7 4.2 4.7 87 0.9 N 7 9 4 5 1013.7 - 0.0
22/10:30pm 7.9 4.0 5.5 85 1.1 W 15 26 8 14 1013.7 - 0.0
22/10:00pm 8.5 4.3 5.6 82 1.3 WNW 17 26 9 14 1013.6 - 0.0
22/09:30pm 8.7 5.3 6.0 83 1.3 W 13 19 7 10 1013.3 - 0.0
22/09:00pm 9.1 5.7 5.7 79 1.6 W 13 20 7 11 1012.7 1012.7 0.0
22/08:30pm 9.4 5.7 4.2 70 2.4 W 13 20 7 11 1012.4 - 0.0
22/08:00pm 9.4 5.5 3.6 67 2.6 W 13 17 7 9 1012.2 - 0.0
22/07:30pm 9.2 5.3 3.6 68 2.5 WSW 13 19 7 10 1012.0 - 0.0
22/07:00pm 7.7 4.4 2.6 70 2.2 W 9 13 5 7 1011.7 - 0.0
22/06:30pm 9.4 5.4 2.9 64 2.9 W 13 22 7 12 1011.1 - 0.0
22/06:00pm 9.7 4.5 2.6 61 3.1 W 19 28 10 15 1010.6 1010.6 0.0
22/05:30pm 10.3 5.1 2.4 58 3.5 W 19 28 10 15 1010.5 - 0.0
22/05:00pm 11.2 5.8 2.2 54 4.0 W 20 41 11 22 1010.1 - 0.0
22/04:30pm 11.4 6.0 2.4 54 4.0 W 20 32 11 17 1009.8 - 0.0
22/04:00pm 13.2 8.2 3.6 52 4.4 WNW 19 30 10 16 1009.7 - 0.0
22/03:30pm 13.4 7.5 4.0 53 4.4 W 24 39 13 21 1009.7 - 0.0
22/03:00pm 13.0 5.9 3.7 53 4.3 WSW 30 50 16 27 1009.3 1009.3 0.0
22/02:32pm 13.7 6.9 2.9 48 4.9 W 28 46 15 25 1008.9 - 0.0
22/02:30pm 13.8 7.0 3.3 49 4.8 W 28 43 15 23 1008.9 - 0.0
22/02:00pm 14.8 7.7 3.6 47 5.2 W 30 50 16 27 1008.4 - 0.0
22/01:45pm 14.8 8.1 3.9 48 5.1 W 28 48 15 26 1008.3 - 0.0
22/01:30pm 15.3 8.7 6.1 54 4.5 W 30 44 16 24 1008.1 - 0.0
22/01:00pm 15.6 9.1 6.3 54 4.6 W 30 50 16 27 1007.8 - 0.0
22/12:53pm 15.3 8.4 6.6 56 4.3 W 32 50 17 27 1007.6 - 0.0
22/12:30pm 15.8 9.4 6.8 55 4.5 W 30 44 16 24 1007.4 - 0.0
22/12:01pm 16.5 8.8 6.9 53 4.9 WNW 37 57 20 31 1007.3 - 0.0
22/12:00pm 16.6 9.1 6.4 51 5.1 WNW 35 48 19 26 1007.3 1007.3 0.0
22/11:37am 15.9 9.9 6.9 55 4.5 W 28 52 15 28 1007.4 - 0.0
22/11:30am 15.4 10.4 6.4 55 4.5 W 22 32 12 17 1007.4 - 0.0
22/11:00am 15.7 9.3 7.0 56 4.4 WNW 30 46 16 25 1007.1 - 0.0
22/10:59am 16.1 10.2 7.6 57 4.4 WNW 28 46 15 25 1007.1 - 0.0
22/10:30am 14.2 8.2 7.0 62 3.6 WNW 28 44 15 24 1006.7 - 0.0
22/10:12am 14.4 8.5 7.5 63 3.5 WNW 28 48 15 26 1006.4 - 0.0
22/10:00am 14.0 9.9 8.0 67 3.1 NW 19 28 10 15 1006.4 - 0.0
22/09:30am 13.4 9.4 8.9 74 2.3 NW 20 30 11 16 1006.5 - 0.0
22/09:00am 13.3 9.2 10.1 81 1.7 NW 22 32 12 17 1006.1 1006.0 4.2
22/08:30am 12.5 9.5 10.7 89 1.0 NW 17 20 9 11 1006.3 - 4.2
22/08:00am 11.9 10.0 10.5 91 0.7 WNW 11 17 6 9 1006.1 - 4.2
22/07:30am 12.6 8.7 10.8 89 1.0 NNW 22 28 12 15 1005.8 - 4.2
22/07:00am 12.7 8.7 10.4 86 1.2 NNW 22 30 12 16 1005.3 - 4.2
22/06:30am 12.6 7.8 10.3 86 1.2 NW 26 35 14 19 1005.1 - 4.2
22/06:00am 12.7 7.5 10.1 84 1.4 NNW 28 35 15 19 1004.9 1004.9 4.2
22/05:30am 12.7 7.0 11.1 90 0.9 NNW 32 43 17 23 1004.8 - 4.2
22/05:00am 12.4 6.8 11.5 94 0.5 NNW 32 43 17 23 1004.3 - 4.2
22/04:30am 12.0 5.9 11.8 99 0.1 NNW 35 44 19 24 1004.5 - 4.2
22/04:00am 11.9 5.8 11.7 99 0.1 NNW 35 52 19 28 1004.0 - 4.2
22/03:50am 12.0 5.5 11.8 99 0.1 NNW 37 56 20 30 1004.0 - 4.2
22/03:30am 11.9 5.4 11.7 99 0.1 NNW 37 50 20 27 1004.1 - 4.2
22/03:00am 11.8 5.3 11.6 99 0.1 NNW 37 56 20 30 1004.3 1004.2 4.2
22/02:58am 11.8 5.7 11.6 99 0.1 NNW 35 56 19 30 1004.3 - 4.2
22/02:30am 11.5 5.7 11.5 100 0.0 NNW 33 50 18 27 1004.7 - 4.2
22/02:10am 11.3 5.6 11.3 100 0.0 N 32 50 17 27 1005.1 - 4.2
22/02:00am 11.2 5.3 11.2 100 0.0 N 33 46 18 25 1005.2 - 4.2
22/01:31am 11.0 5.6 11.0 100 0.0 N 30 48 16 26 1005.5 - 4.2
22/01:30am 11.0 5.6 11.0 100 0.0 N 30 43 16 23 1005.5 - 4.2
22/01:17am 10.9 4.2 10.9 100 0.0 N 37 59 20 32 1005.7 - 4.2
22/01:00am 10.8 3.7 10.8 100 0.0 N 39 54 21 29 1005.8 - 4.2
22/12:36am 10.5 3.2 10.3 99 0.1 N 39 57 21 31 1006.4 - 4.2
22/12:30am 10.5 2.5 10.3 99 0.1 N 43 57 23 31 1006.4 - 4.2
22/12:21am 10.5 3.6 10.3 99 0.1 N 37 57 20 31 1006.6 - 4.2
22/12:00am 10.4 3.9 10.4 100 0.0 N 35 50 19 27 1007.3 1007.3 4.2
 
Date/Time
EST
Temp
°C
App
Temp
°C
Dew
Point
Rel
Hum
%
Delta-T
°C
Wind Press
QNH
hPa
Press
MSL
hPa
Rain
since 9 am
mm
Dir
 
Spd
km/h
Gust
km/h
Spd
kts
Gust
kts
21/11:30pm 9.8 3.5 9.8 100 0.0 N 33 54 18 29 1007.8 - 4.2
21/11:05pm 9.5 3.1 9.5 100 0.0 N 33 52 18 28 1008.4 - 4.2
21/11:00pm 9.5 2.4 9.5 100 0.0 N 37 52 20 28 1008.4 - 4.2
21/10:41pm 9.1 2.8 9.1 100 0.0 N 32 50 17 27 1008.9 - 4.2
21/10:30pm 9.1 2.8 9.1 100 0.0 N 32 44 17 24 1009.0 - 4.2
21/10:00pm 8.5 2.8 8.5 100 0.0 N 28 41 15 22 1009.8 - 4.0
21/09:30pm 8.3 3.0 8.3 100 0.0 N 26 41 14 22 1010.1 - 4.0
21/09:00pm 8.8 3.6 8.8 100 0.0 N 26 43 14 23 1010.5 1010.5 3.8
21/08:30pm 8.1 4.4 8.1 100 0.0 NNE 17 22 9 12 1010.8 - 3.6
21/08:00pm 7.8 5.2 7.8 100 0.0 NE 11 20 6 11 1010.9 - 3.6
21/07:30pm 7.9 4.5 7.8 99 0.0 NNE 15 19 8 10 1011.4 - 3.2
21/07:00pm 7.8 4.8 7.7 99 0.0 NNE 13 20 7 11 1011.7 - 2.2
21/06:30pm 7.6 5.3 7.5 99 0.0 NNE 9 11 5 6 1012.1 - 1.4
21/06:00pm 7.5 5.8 7.4 99 0.0 NE 6 9 3 5 1012.1 1012.1 1.2
21/05:30pm 7.4 5.4 7.0 97 0.2 ENE 7 13 4 7 1012.7 - 0.6
21/05:00pm 7.8 4.5 6.6 92 0.6 NNE 13 17 7 9 1013.1 - 0.2
21/04:30pm 8.1 4.8 6.2 88 0.9 NNE 13 24 7 13 1013.3 - 0.2
21/04:00pm 8.4 5.5 6.4 87 0.9 NE 11 19 6 10 1013.4 - 0.2
21/03:30pm 8.1 4.2 5.4 83 1.2 NNE 15 22 8 12 1013.7 - 0.2
21/03:00pm 8.2 3.3 5.0 80 1.5 NNE 20 28 11 15 1013.7 1013.7 0.2
21/02:30pm 7.9 4.6 4.5 79 1.5 ENE 11 19 6 10 1014.0 - 0.2
21/02:00pm 9.2 4.4 2.5 63 2.9 N 17 24 9 13 1014.7 - 0.0
21/01:30pm 9.7 3.8 1.8 58 3.4 N 22 30 12 16 1015.0 - 0.0
21/01:00pm 11.4 5.9 1.6 51 4.3 N 20 32 11 17 1014.9 - 0.0
21/12:30pm 11.1 5.8 1.6 52 4.1 NNE 19 26 10 14 1015.5 - 0.0

Other Formats:

Comma delimited format used in spreadsheet applications
http://www.bom.gov.au/fwo/IDT60801/IDT60801.94960.axf

JavaScript Object Notation format (JSON) in row-major order
http://www.bom.gov.au/fwo/IDT60801/IDT60801.94960.json